#timestamp,LO_Frequency,Hit,StdDev 
1635469215.6,286046998.8,N
1635469235.4,286047000.0,N
1635469255.2,286047000.0,N
1635469305.1,286047000.1,E
1635469315.0,286047000.9,N
1635469315.9,286047000.9,P
1635469335.8,286047001.2,P
1635469355.6,286047002.8,Y
1635469405.5,286046997.8,E
1635469415.4,286046996.5,N
1635469435.2,286047000.9,P
1635469455.0,286046998.5,N
1635469455.9,286046998.5,N
1635469475.8,286047000.0,N
1635469495.6,286047002.2,N
1635469515.4,286047001.3,N
1635469535.3,286047003.4,N
1635469555.1,286047005.5,N
1635469575.8,286047002.9,N
1635469595.7,286047001.3,N
1635469615.5,286047004.4,N
1635469635.3,286047003.5,N
1635469655.2,286047005.7,N
1635469675.0,286047004.3,N
1635469675.9,286047004.3,N
1635469695.7,286047003.6,N
1635469715.6,286047003.3,N
1635469735.4,286047005.8,N
1635469755.2,286047005.3,N
1635469775.1,286047006.0,N
1635469776.0,286047006.0,N
1635469795.8,286047003.3,N
1635469815.6,286047003.1,N
1635469835.5,286047005.3,N
1635469855.3,286047005.6,N
1635469875.1,286047004.9,N
1635469895.9,286047005.8,N
1635469915.7,286047005.9,N
1635469935.5,286047004.1,N
1635469955.4,286047002.5,N
1635469975.2,286046999.7,N
1635469995.0,286047002.8,N
1635469995.9,286047002.8,N
1635470015.8,286047002.0,N
1635470035.6,286047002.2,N
1635470055.4,286047001.6,N
1635470075.3,286047001.6,N
1635470095.1,286047002.1,N
1635470115.8,286047001.5,N
1635470135.7,286047002.2,N
1635470155.5,286047001.4,N
1635470175.3,286047001.4,N
1635470195.2,286047003.2,N
1635470215.0,286047006.0,Y
1635470215.9,286047006.0,P
1635470235.8,286046998.6,N
1635470255.6,286046998.2,N
1635470275.4,286046998.1,N
1635470295.3,286046998.2,N
1635470315.1,286047000.2,N
1635470316.0,286047000.2,N
1635470335.8,286047000.8,N
1635470355.7,286046998.1,N
1635470375.5,286046998.6,N
1635470395.3,286046999.1,N
1635470415.2,286046999.1,N
1635470435.9,286046998.3,N
1635470455.7,286047000.5,N
1635470475.6,286046998.8,N
1635470495.4,286046998.5,N
1635470515.2,286047000.8,N
1635470535.1,286046998.3,N
1635470536.0,286046998.3,N
1635470555.8,286047001.1,N
1635470575.6,286046998.7,N
1635470595.5,286046998.8,N
1635470615.3,286047001.2,N
1635470635.1,286046998.9,N
1635470655.9,286046998.4,N
1635470675.7,286046998.2,N
1635470695.5,286046998.5,N
1635470715.4,286046998.2,N
1635470735.2,286046998.3,N
1635470755.0,286046998.9,N
1635470755.9,286046998.9,N
1635470775.8,286046999.4,N
1635470795.6,286046999.3,N
1635470815.4,286046998.4,N
1635470835.3,286046998.8,N
1635470855.1,286046996.6,Y
1635470856.0,286046996.6,P
1635470875.8,286047000.5,N
1635470895.7,286047000.7,N
1635470915.5,286047000.4,N
1635470935.3,286047001.0,N
1635470955.2,286047001.1,N
1635470975.9,286046998.9,N
1635470995.7,286046998.3,N
1635471015.6,286047000.8,N
1635471035.4,286046999.4,N
1635471055.2,286046997.1,N
1635471075.1,286046996.7,N
1635471076.0,286046996.7,N
1635471095.8,286046997.2,N
1635471115.6,286046996.5,N
1635471135.5,286046999.3,N
1635471155.3,286046998.6,N
1635471175.1,286047001.1,N
1635471195.9,286046998.3,N
1635471215.7,286046999.0,N
1635471235.5,286046999.2,N
1635471255.4,286046996.5,N
1635471275.2,286046997.4,N
1635471295.0,286046995.3,N
1635471295.9,286046995.3,N
1635471315.8,286046995.4,N
1635471335.6,286046995.3,N
1635471355.4,286046997.5,N
1635471375.3,286046997.8,N
1635471395.1,286046999.2,N
1635471396.0,286046999.2,N
1635471415.8,286046997.2,N
1635471435.7,286046997.1,N
1635471455.5,286046997.5,N
1635471475.3,286046995.2,N
1635471495.2,286046995.1,N
1635471515.9,286046995.5,N
1635471535.7,286046997.5,N
1635471555.6,286046995.0,Y
1635471575.4,286046999.4,P
1635471595.2,286046998.7,N
1635471615.1,286046998.2,N
1635471616.0,286046998.2,N
1635471635.8,286047000.8,N
1635471655.6,286046999.0,N
1635471675.5,286047001.0,N
1635471695.3,286047000.7,N
1635471715.1,286047000.7,N
1635471735.9,286047001.2,N
1635471755.7,286047000.8,N
1635471775.5,286046998.8,N
1635471795.4,286046998.5,N
1635471815.2,286047000.6,N
1635471835.0,286046998.6,N
1635471835.9,286046998.6,N
1635471855.8,286046998.7,N
1635471875.6,286047000.8,N
1635471895.4,286046996.9,N
1635471915.3,286046999.5,N
1635471935.1,286046999.2,N
1635471955.8,286046999.4,N
1635471975.7,286046999.1,N
1635471995.5,286046998.5,N
1635472015.3,286046999.4,N
1635472035.2,286046998.1,N
1635472055.0,286046999.2,N
1635472055.9,286046999.2,N
1635472075.7,286046996.7,Y
1635472095.6,286046998.8,P
1635472115.4,286046998.9,P
1635472135.2,286046996.6,P
1635472155.1,286046996.8,Y
1635472156.0,286046996.8,P
1635472175.8,286046999.4,N
1635472195.6,286046999.1,N
1635472215.5,286046998.7,N
1635472235.3,286046996.6,Y
1635472255.1,286047000.6,P
1635472275.9,286047000.3,N
1635472295.7,286047000.1,N
1635472315.5,286047000.0,N
1635472335.4,286046999.9,N
1635472355.2,286047000.1,N
1635472375.0,286046999.7,N
1635472376.0,286046999.7,N
1635472395.8,286047000.4,N
1635472415.6,286046999.9,N
1635472435.5,286047002.3,Y
1635472455.3,286047002.0,P
1635472475.1,286047002.0,N
1635472495.9,286046999.7,N
1635472515.7,286047000.6,N
1635472535.5,286047000.6,N
1635472555.4,286047000.8,N
1635472575.2,286047001.0,N
1635472595.0,286047000.4,N
1635472595.9,286047000.4,N
1635472615.8,286046999.8,N
1635472635.6,286047001.0,N
1635472655.4,286047002.8,Y
1635472675.3,286047002.6,P
1635472695.1,286047000.4,N
1635472696.0,286047000.4,N
1635472715.8,286047000.0,N
1635472735.7,286047000.3,N
1635472755.5,286047000.6,N
1635472775.3,286047002.8,Y
1635472795.2,286046998.1,P
